Showing default

TEMISAT, 22783

Orbit data source: Space-Track

TEMISAT, 22783 is a payload satellite owned by Telespazio (IT) in LEO that was launched on Tue, 31 Aug 1993 UTC via a TSIKLON-3 launch vehicle from the Plesetsk Missile And Space Complex (PKMTR). Payload-class satellites include a variety of spacecraft equipped with specific instruments for various scientific and technological missions. These include communications satellites like Starlink; space stations such as the ISS; scientific satellites like the Hubble; Earth observation satellites from companies like Planet Labs, Umbra, and HawkEye 360; GPS; miniature CubeSats for education and research; and military/defense satellites.

Loading next visibility...
Identifier
22783, 1993-055B
Orbit
LEO
Country
Flag of ITIT
Related business
Manufacturer
Kayser-Threde
Mission
Commercial Communications
Bus & Motor
TEMISAT, Unknown motor
Mass
~42 kg wet, ~42 kg dry
Launch date (UTC)
1993-08-31 (32 years ago)
Launch vehicle
TSIKLON-3
Launch site
Plesetsk Missile And Space Complex (PKMTR)
Object type
Payload
Rocket body
Debris
Shape & HBR
Hex Poly, 0.2 m
Radar Cross Section
0.140 m², Medium (>0.1 m² and < 1m²)

Expand to show TLE details & history
Last TLE update: 10 hours ago

TLE from 10 hours ago
0 TEMISAT
1 22783U 93055B   25260.77142107  .00000035  00000-0  18759-4 0  9990
2 22783  82.5536 154.1281 0021529 252.4493 107.4315 13.83871982618032
Epoch: 2025-09-17T18:30Z
TLE epoch observation values (Epoch: 2025-09-17T18:30:50.78Z)
Latitude
-0.00001°
Longitude
-120.52607°
Altitude
957.845 km
Speed
7.37 km/s
True Right ascension
10h 16m 30s
True Declination
0° 00' 00"
Sunlit
Object was in daylight at epoch
Visualization orbit readout
Latitude
Unknown
Longitude
Unknown
Altitude
Unknown
Speed
Unknown
Apparent Right ascension
Unknown
Apparent Declination
Unknown
Sunlit
N/A
Visualization observer readout
Local Sidereal Time
21:22:06
Azimuth
Unknown
Elevation
Unknown
Doppler factor
Unknown
Orbital elements
Apogee altitude
963.108 km
Perigee altitude
931.566 km
Semi-major axis
7,325.474 km
Eccentricity
0.00215
Inclination
82.5536°
RAAN
154.1281°
Arg. of periapsis
252.4493°
True anomaly
107.66668°
Mean anomaly
107.4315°
Eccentric anomaly
107.54911°
Mean motion
3.4617 °/min
Orbital period
104 mins
BSTAR
0.000018759
Loading maneuver chart data...
Computing Atmospheric mass density...
Loading historical data...
Loading historical data...
Loading historical data...
Loading historical data...
Loading historical data...
Loading historical data...
Loading historical data...
Other satellites on launch #55 in the year 1993 (1993-08-31 UTC)

Documentation

Showing up to 5 results
|